Погода в Хуанъяни

Китай     28°42′07″N   121°14′10″E
темп.,
°C
ветер,
м/с
пор.,
м/с
влажн.,
%
обл.,
%
осадки,
мм/ч
давл.,
гПа
погр.,
м
15 апреля, чт
чт1523:00+10вюв0195100 2.1 1021169
02:00+10всв0095100 2.1 101997
05:00+9св0196100 0.8 1018115
08:00+10вюв129360 1.4 1019266
11:00+13юв2284100 0.0 1018681
14:00+14вюв1284100 0.1 1016501
17:00+13ююв2187100 0.0 1016338
20:00+12юв1191100 0.0 101857
16 апреля, пт
пт1623:00+11юз0095100 0.0 101911
02:00+10сз11961 0.0 101811
05:00+10сз11960 0.0 101810
08:00+16з01815 0.0 1018261
11:00+23всв116139 0.0 1017926
14:00+23вюв326265 0.1 10161143
17:00+17юв2386100 0.1 1017124
20:00+15ююв1188100 0.2 101949
17 апреля, сб
сб1723:00+15ссз1197100 3.0 102042
02:00+15ссз1298100 3.8 102071
05:00+15сз1195100 0.3 101914
08:00+17сз138560 0.3 1021349
11:00+22ссз57494 0.0 10211594
14:00+23ссз68415 0.0 10201792
17:00+19с475519 0.0 1020577
20:00+13с22725 0.0 102353
18 апреля, вс
вс1823:00+11св1177100 0.0 102530
02:00+11ссв1176100 0.0 102416
05:00+10сз1175100 0.0 102412
08:00+14с015722 0.0 1024383
11:00+19всв1239100 0.0 10231385
14:00+19вюв334276 0.0 10191148
17:00+15юв2354100 0.0 1020588
20:00+11ююв116437 0.0 102231
19 апреля, пн
пн1923:00+10юв0169100 0.0 102111
02:00+9ссз0071100 0.0 102011
05:00+9зюз017267 0.0 101911
08:00+14юв11566 0.0 1020359
11:00+18юв22455 0.0 10191005
14:00+19юв43475 0.0 10181052
17:00+16юв33555 0.0 1017653
20:00+11юв11722 0.0 101914